Home   Weather   Tiruvarur   Past weeks

Flag for India Past Weather in Tiruvarur, Tamil Nadu, India — Yesterday and Last 2 Weeks

Now
75 °F

Fog.


Feels Like: 75 °F
Forecast: 74 / 86 °F
Wind: 9 mph from Northeast

Location: Tiruchchirapalli

Current Time: Jan 22, 2017 at 9:30:10 am

Latest Report: Jan 22, 2017 at 8:30 am


Visibility: 2 mi

Pressure: 30.01 "Hg

Humidity: 89%

Dew Point: 72 °F

Location of TiruvarurLocation

Past Weather in Tiruvarur — Graph

°F

Tiruvarur Temperature Yesterday

Maximum temperature yesterday: 77 °F (at 9:30 am)
Minimum temperature yesterday: 72 °F (at 4:00 am)
Average temperature yesterday: 75 °F

High & Low Weather Summary for the Past Weeks

 TemperatureHumidityPressure
High91 °F (Jan 10, 3:30 pm)100% (Jan 21, 11:30 pm)30.04 "Hg (Jan 21, 11:30 pm)
Low68 °F (Jan 8, 5:30 am)31% (Jan 11, 3:30 pm)29.74 "Hg (Jan 7, 5:00 pm)
Average78 °F67%29.89 "Hg
* Reported Jan 7 8:30 am — Jan 22 8:30 am, Tiruvarur, Weather by CustomWeather, © 2017

Note: Actual official high and low records may vary slightly from our data, if they occured in-between our weather recording intervals... More about our weather records

Advertising

Tiruvarur Weather History for the Previous 24 Hours

Scroll right to see more
 ConditionsComfort  
Time TempWeatherWind HumidityBarometerVisibility
8:30 am
Sun, Jan 22
75 °FFog.9 mph89%30.01 "Hg2 mi
8:00 am73 °FFog.5 mph94%30.01 "Hg2 mi
7:30 am73 °FFog.6 mph94%29.98 "Hg2 mi
7:00 am73 °FFog.6 mph94%29.98 "Hg2 mi
6:30 am73 °FFog.7 mph94%29.95 "Hg2 mi
6:00 am73 °FFog.8 mph94%29.95 "Hg2 mi
5:30 am73 °FFog.7 mph94%29.95 "Hg2 mi
5:00 am73 °FFog.6 mph94%29.95 "Hg2 mi
4:30 am73 °FFog.6 mph94%29.95 "Hg2 mi
4:00 am73 °FFog.3 mph100%29.95 "Hg2 mi
3:30 am73 °FFog.3 mph100%29.95 "Hg1 mi
3:00 am73 °FFog.3 mph94%29.95 "Hg1 mi
2:30 am73 °FFog.5 mph94%29.95 "Hg1 mi
2:00 am73 °FFog.5 mph94%29.95 "Hg1 mi
1:30 am73 °FFog.5 mph94%29.98 "Hg1 mi
1:00 am73 °FPartly cloudy.5 mph94%30.01 "Hg1 mi
12:30 am73 °FPartly cloudy.5 mph100%30.01 "Hg1 mi
12:00 am73 °FPartly cloudy.6 mph100%30.01 "Hg1 mi
11:30 pm
Sat, Jan 21
73 °FPartly cloudy.7 mph100%30.01 "Hg1 mi
11:00 pm75 °FPartly cloudy.9 mph94%30.04 "Hg1 mi
10:40 pm75 °FRain. Mostly cloudy.9 mph94%30.04 "Hg1 mi
10:30 pm75 °FRain. Mostly cloudy.9 mph94%30.04 "Hg1 mi
10:00 pm75 °FRain. Mostly cloudy.9 mph94%30.04 "Hg1 mi
9:45 pm75 °FRain. Mostly cloudy.12 mph94%30.01 "Hg1 mi
9:30 pm75 °FPartly cloudy.10 mph94%30.01 "Hg1 mi
9:00 pm75 °FPartly cloudy.9 mph94%29.98 "Hg1 mi
8:30 pm75 °FPartly cloudy.9 mph94%29.98 "Hg1 mi
8:00 pm75 °FPartly cloudy.12 mph94%29.95 "Hg1 mi
7:30 pm75 °FPartly cloudy.12 mph94%29.95 "Hg1 mi
7:00 pm75 °FPartly cloudy.6 mph94%29.92 "Hg1 mi
6:30 pm75 °FDrizzle. Broken clouds.3 mph94%29.92 "Hg1 mi
6:00 pm75 °FDrizzle. Broken clouds.3 mph94%29.89 "Hg1 mi
5:30 pm75 °FDrizzle. Broken clouds.5 mph94%29.89 "Hg1 mi
5:00 pm75 °FDrizzle. Broken clouds.6 mph94%29.89 "Hg1 mi
4:00 pm75 °FBroken clouds.6 mph94%29.89 "Hg1 mi
3:30 pm75 °FBroken clouds.5 mph89%29.89 "Hg1 mi
3:00 pm73 °FBroken clouds.5 mph94%29.89 "Hg1 mi
2:00 pm77 °FDrizzle. Broken clouds.7 mph83%29.92 "Hg1 mi
1:30 pm77 °FDrizzle. Broken clouds.9 mph83%29.92 "Hg1 mi
1:00 pm77 °FDrizzle. Broken clouds.12 mph83%29.95 "Hg1 mi
12:30 pm77 °FRain. Broken clouds.15 mph83%29.95 "Hg1 mi
12:00 pm77 °FFog.10 mph83%29.95 "Hg1 mi
11:30 am77 °FDrizzle. Broken clouds.12 mph83%29.95 "Hg1 mi
11:00 am77 °FDrizzle. Broken clouds.10 mph83%29.98 "Hg1 mi
10:30 am77 °FDrizzle. Broken clouds.12 mph79%29.98 "Hg1 mi
10:00 am77 °FDrizzle. Broken clouds.9 mph79%29.98 "Hg1 mi
9:30 am77 °FDrizzle. Broken clouds.10 mph79%29.98 "Hg1 mi
9:00 am75 °FDrizzle. Broken clouds.12 mph83%29.98 "Hg1 mi
Weather by CustomWeather, © 2017

See weather overviewHow to use our weather pages